www.pogodaiklimat.ru

Погода и климат >> Архив погоды >> Боливия >> Пуэрто-Суарес


ПОГОДА в Пуэрто-Суаресе

  • Прогноз погоды в Пуэрто-Суаресе
  • Монитор погоды в Пуэрто-Суаресе

АРХИВ ПОГОДЫ в Пуэрто-Суаресе

Время (UTC), дата Ветер
(напр.,м/с)
 
Видим.   Явления Облачность Т
(С)
Тd
(С)
f
(%)
Тe
(С)
Тes
(С)
Комфортность P
(гПа)
Po
(гПа)
Тmin
(С)
Tmax
(С)
R
(мм)
R24
(мм)
S
(см)
12 19.04 штиль 0 30 км 5/0
[Ci fib]
+27.0 +25.0 89 +39 +44 очень
душно
1011.4 996.7 +22.4
15 19.04 СВ 2 30 км 3/3 600 м
[Cu hum]
+34.0 +25.5 61 +48 +59 опасность
перегрева
1011.9 997.0
18 19.04 СВ 3 30 км 5/5 600 м
[Cu med, cong]
+35.0 +25.9 59 +50 +55 опасность
перегрева
1008.9 994.2
21 19.04 штиль 0 30 км 3/3 600 м
[Cu med, cong]
+34.0 +26.2 64 +50 +51 опасность
перегрева
1007.0 992.4 +35.5
12 20.04 СВ 3 30 км 3/3 600 м
[Cu hum]
+28.0 +25.4 86 +41 +43 опасность
перегрева
1012.0 997.3 +22.8
15 20.04 СВ 5 30 км 5/5 600 м
[Cu med, cong]
+34.0 +25.6 62 +49 +53 опасность
перегрева
1011.6 997.1
18 20.04 В 4 30 км 8/5 600 м
[Cb cap Ci sp]
+33.0 +26.5 69 +50 +53 опасность
перегрева
1008.9 994.0
21 20.04 В 2 30 км 5/1 600 м
[Cu hum Ci fib]
+33.0 +26.5 69 +50 +50 опасность
перегрева
1007.6 993.0 +35.6
12 21.04 штиль 0 30 км 5/5 600 м
[Sc]
+28.0 +25.4 86 +41 +44 опасность
перегрева
1011.2 996.9 +22.4
15 21.04 С 7 30 км 8/5 600 м
[Cu med, cong Ac trans]
+33.3 +25.0 62 +47 +48 опасность
перегрева
1010.7 996.0
18 21.04 С 5 30 км 8/8 600 м
[Cb cap]
+34.0 +25.2 60 +48 +49 опасность
перегрева
1007.9 993.0
21 21.04 С 2 30 км 4/4 600 м
[Cu med, cong]
+33.0 +25.2 64 +47 +47 опасность
перегрева
1007.0 992.0 +35.0
12 22.04 В 3 20 км {гроза, дождь} 9/8 300 м
[Sc Ci sp]
+24.0 +23.4 96 +32 +33 очень
душно
1010.7 996.0 +21.4 29
15 22.04 В 3 30 км 10/10 400 м
[Sc]
+27.3 +24.4 84 +38 +38 очень
душно
1011.9 997.0
18 22.04 В 4 8000 м гроза без осадков туман 10/9 500 м
[Cb cap Ci sp]
+26.0 +23.4 86 +35 +36 очень
душно
1009.2 994.4
21 22.04 штиль 0 30 км {гроза} 9/5 500 м
[Cb cap Ci sp]
+26.0 +24.6 92 +37 +37 очень
душно
1007.6 993.0 +29.0
12 23.04 В 2 30 км {гроза, дождь} 9/8 240 м
[Sc Ci sp]
+24.5 +23.8 96 +33 +34 очень
душно
1013.0 998.2 +21.4 36
15 23.04 В 2 30 км 8/4 450 м
[Sc Ci sp]
+29.0 +25.0 79 +42 +49 опасность
перегрева
1013.7 999.0
18 23.04 З 2 30 км 8/4 500 м
[Sc Ac trans]
+32.0 +25.4 68 +46 +50 опасность
перегрева
1010.6 996.0
21 23.04 З 2 30 км 8/3 500 м
[Cu med, cong Ci sp]
+29.0 +25.0 79 +42 +42 опасность
перегрева
1009.9 995.2 +33.0
12 24.04 штиль 0 30 км 3/3 450 м
[Sc]
+26.0 +24.6 92 +37 +40 очень
душно
1015.6 1001.0 +22.2
15 24.04 В 2 30 км 3/3 500 м
[Sc]
+31.5 +25.6 71 +46 +56 опасность
перегрева
1015.9 1001.0
18 24.04 С 2 20 км 8/5 500 м
[Cb cap Ci sp]
+34.0 +24.8 59 +47 +52 опасность
перегрева
1011.9 997.0
21 24.04 штиль 0 30 км 9/3 500 м
[Cu med, cong Ci sp]
+28.0 +24.0 79 +39 +39 очень
душно
1011.6 997.0 +34.5
12 25.04 штиль 0 30 км ясно +27.0 +24.4 86 +38 +43 очень
душно
1014.0 999.0 +22.0
15 25.04 В 2 30 км 3/3 500 м
[Cu med, cong]
+33.0 +25.2 64 +47 +57 опасность
перегрева
1014.2 999.7
18 25.04 В 3 6000 м гроза без осадков 9/9 450 м
[Cb cap Ac cuf]
+34.0 +25.3 61 +48 +49 опасность
перегрева
1013.0 997.7
21 25.04 штиль 0 30 км 6/0 2000 м
[Ac trans]
+30.0 +26.7 83 +47 +47 опасность
перегрева
1011.6 996.2 +34.0

 

Местоположение метеостанции Пуэрто-Суарес (Боливия): широта -18.98 долгота -57.81 высота над уровнем моря 134 м.

В архиве по умолчанию представлена погода в Пуэрто-Суаресе за последнюю неделю. Архивные данные за месяц целиком и за предыдущие месяцы, начиная с января 2011 года, Вы можете получить, выбрав интересующий диапазон дат из раскрывающегося списка и нажав кнопку "Ввод!".


*Определитесь, кто Вы:
робот инопланетянин человек

Внимание! Время в таблицах - всемирное. Для получения местного времени необходимо прибавить поправку, которая равна -4 ч.

Смотрите также архив погоды в соседних городах и на ближайших метеорологических станциях:

Погода в Корумбе (Мату-Гросу-ду-Сул, Бразилия) (19 км)
Погода в Хумириме (Мату-Гросу-ду-Сул, Бразилия) (125 км)
Погода в Миранде (Мату-Гросу-ду-Сул, Бразилия) (214 км)
Погода в Роборе (Боливия) (219 км)
Погода в Акидауане (Мату-Гросу-ду-Сул, Бразилия) (270 км)
Погода в Сан-Матиасе (Боливия) (301 км)
Погода в Порто Муртиньо (Мату-Гросу-ду-Сул, Бразилия) (304 км)
Погода в Касерисе (Мату-Гросу, Бразилия) (324 км)
Погода в Касересе (Мату-Гросу, Бразилия) (326 км)
Погода в Жардиме (Мату-Гросу-ду-Сул, Бразилия) (328 км)

Пояснения к столбцам:

Ветер - указаны скорость ветра в м/с - средняя за 10 мин, порывы в срок и между сроками (в фигурных скобках) и направление, откуда дует ветер: С - северный, СВ - северо-восточный, В - восточный, ЮВ - юго-восточный, Ю - южный, ЮЗ - юго-западный, З - западный, СЗ - северо-западный.
Видимость - горизонтальная дальность видимости в метрах или километрах. При видимости от 1 до 10 км при отсутствии осадков обычно наблюдается дымка, при ухудшении видимости до 1 км и менее - туман. В сухую погоду видимость может ухудшаться дымом, пылью или мглою.
Явления - указаны атмосферные явления, наблюдавшиеся в срок или в последний час перед сроком; фигурными скобками обозначены явления, наблюдавшиеся между сроками (за 1-3 часа до срока); квадратными скобками обозначены град или гололедные отложения с указанием их диаметра в мм.
Облачность - указаны через наклонную черту общая и нижняя облачность в баллах и высота нижней границы облаков в метрах; квадратными скобками обозначены формы облаков: Ci - перистые, Cs - перисто-слоистые, Cc - перисто-кучевые, Ac - высококучевые, As - высокослоистые, Sc - слоисто-кучевые, Ns - слоисто-дождевые, Cu - кучевые, Cb - кучево-дождевые. Подробнее классификацию облаков см. в Атласе облаков (PDF).
T - Температура воздуха - температура, измеренная на высоте 2 м над землей.
Td - Температура точки росы - температура, при понижении до которой содержащийся в воздухе водяной пар достигнет насыщения.
f - Относительная влажность воздуха - влажноcть воздуха, измеренная на высоте 2 м над землей.
Te - Эффективная температура - температура, которую ощущает одетый по сезону человек в тени. Характеристика душности погоды. При расчете учитывается влияние влажности воздуха и скорости ветра на теплоощущения человека.
Tes - Эффективная температура на солнце - температура, которую ощущает человек, с поправкой на солнечный нагрев. Характеристика знойности погоды. Зависит от высоты солнца над горизонтом, облачности и скорости ветра. Ночью, в пасмурную погоду, а также при ветре 12 м/с и более поправка равна нулю.
P - Атмосферное давление - приведенное к уровню моря атмосферное давление.
Po - Атмосферное давление - измеренное на уровне метеостанции атмосферное давление.
Tmin - Минимальная температура - минимум температуры воздуха на высоте 2 м над землей.
Tmax - Максимальная температура - максимум температуры воздуха на высоте 2 м над землей.
R - Количество осадков - Количество выпавших осадков за период времени, мм. При наведении курсора мыши на число - период времени, за который выпало указанное количество осадков.
R24 - Количество осадков - Количество выпавших осадков за 24 часа, мм.
S - Снежный покров - Высота снежного покрова, см. При наведении курсора мыши на число - состояние снежного покрова и степень покрытия местности в баллах.